Year,Month,Day,Hour,Minute,Value (Times are PST for temperature in C)
2012,07,02,00,00,12.00
2012,07,02,00,01,11.90
2012,07,02,00,02,12.00
2012,07,02,00,03,11.90
2012,07,02,00,04,11.90
2012,07,02,00,05,11.90
2012,07,02,00,06,11.90
2012,07,02,00,07,11.90
2012,07,02,00,08,11.90
2012,07,02,00,09,11.90
2012,07,02,00,10,11.90
2012,07,02,00,11,11.90
2012,07,02,00,12,11.90
2012,07,02,00,13,11.90
2012,07,02,00,14,11.90
2012,07,02,00,15,11.90
2012,07,02,00,16,11.90
2012,07,02,00,17,11.90
2012,07,02,00,18,11.80
2012,07,02,00,19,11.80
2012,07,02,00,20,11.80
2012,07,02,00,21,11.80
2012,07,02,00,22,11.80
2012,07,02,00,23,11.80
2012,07,02,00,24,11.80
2012,07,02,00,25,11.80
2012,07,02,00,26,11.80
2012,07,02,00,27,11.80
2012,07,02,00,28,11.80
2012,07,02,00,29,11.80
2012,07,02,00,30,11.80
2012,07,02,00,31,11.70
2012,07,02,00,32,11.70
2012,07,02,00,33,11.70
2012,07,02,00,34,11.70
2012,07,02,00,35,11.70
2012,07,02,00,36,11.70
2012,07,02,00,37,11.60
2012,07,02,00,38,11.60
2012,07,02,00,39,11.60
2012,07,02,00,40,11.60
2012,07,02,00,41,11.60
2012,07,02,00,42,11.60
2012,07,02,00,43,11.60
2012,07,02,00,44,11.60
2012,07,02,00,45,11.60
2012,07,02,00,46,11.60
2012,07,02,00,47,11.60
2012,07,02,00,48,11.60
2012,07,02,00,49,11.60
2012,07,02,00,50,11.60
2012,07,02,00,51,11.60
2012,07,02,00,52,11.60
2012,07,02,00,53,11.60
2012,07,02,00,54,11.60
2012,07,02,00,55,11.60
2012,07,02,00,56,11.60
2012,07,02,00,57,11.60
2012,07,02,00,58,11.60
2012,07,02,00,59,11.60
2012,07,02,01,00,11.50
2012,07,02,01,01,11.50
2012,07,02,01,02,11.50
2012,07,02,01,03,11.50
2012,07,02,01,04,11.50
2012,07,02,01,05,11.50
2012,07,02,01,06,11.50
2012,07,02,01,07,11.50
2012,07,02,01,08,11.50
2012,07,02,01,09,11.50
2012,07,02,01,10,11.40
2012,07,02,01,11,11.50
2012,07,02,01,12,11.40
2012,07,02,01,13,11.40
2012,07,02,01,14,11.40
2012,07,02,01,15,11.40
2012,07,02,01,16,11.40
2012,07,02,01,17,11.40
2012,07,02,01,18,11.40
2012,07,02,01,19,11.40
2012,07,02,01,20,11.40
2012,07,02,01,21,11.40
2012,07,02,01,22,11.40
2012,07,02,01,23,11.40
2012,07,02,01,24,11.40
2012,07,02,01,25,11.40
2012,07,02,01,26,11.40
2012,07,02,01,27,11.40
2012,07,02,01,28,11.40
2012,07,02,01,29,11.40
2012,07,02,01,30,11.40
2012,07,02,01,31,11.30
2012,07,02,01,32,11.30
2012,07,02,01,33,11.30
2012,07,02,01,34,11.30
2012,07,02,01,35,11.30
2012,07,02,01,36,11.40
2012,07,02,01,37,11.40
2012,07,02,01,38,11.40
2012,07,02,01,39,11.40
2012,07,02,01,40,11.40
2012,07,02,01,41,11.40
2012,07,02,01,42,11.40
2012,07,02,01,43,11.40
2012,07,02,01,44,11.40
2012,07,02,01,45,11.40
2012,07,02,01,46,11.40
2012,07,02,01,47,11.40
2012,07,02,01,48,11.40
2012,07,02,01,49,11.40
2012,07,02,01,50,11.40
2012,07,02,01,51,11.40
2012,07,02,01,52,11.40
2012,07,02,01,53,11.40
2012,07,02,01,54,11.40
2012,07,02,01,55,11.40
2012,07,02,01,56,11.40
2012,07,02,01,57,11.40
2012,07,02,01,58,11.40
2012,07,02,01,59,11.40
2012,07,02,02,00,11.40
2012,07,02,02,01,11.40
2012,07,02,02,02,11.40
2012,07,02,02,03,11.40
2012,07,02,02,04,11.30
2012,07,02,02,05,11.30
2012,07,02,02,06,11.30
2012,07,02,02,07,11.30
2012,07,02,02,08,11.30
2012,07,02,02,09,11.30
2012,07,02,02,10,11.30
2012,07,02,02,11,11.30
2012,07,02,02,12,11.30
2012,07,02,02,13,11.30
2012,07,02,02,14,11.30
2012,07,02,02,15,11.30
2012,07,02,02,16,11.30
2012,07,02,02,17,11.30
2012,07,02,02,18,11.30
2012,07,02,02,19,11.30
2012,07,02,02,20,11.30
2012,07,02,02,21,11.20
2012,07,02,02,22,11.20
2012,07,02,02,23,11.20
2012,07,02,02,24,11.20
2012,07,02,02,25,11.20
2012,07,02,02,26,11.20
2012,07,02,02,27,11.20
2012,07,02,02,28,11.20
2012,07,02,02,29,11.20
2012,07,02,02,30,11.20
2012,07,02,02,31,11.20
2012,07,02,02,32,11.20
2012,07,02,02,33,11.20
2012,07,02,02,34,11.20
2012,07,02,02,35,11.20
2012,07,02,02,36,11.20
2012,07,02,02,37,11.20
2012,07,02,02,38,11.20
2012,07,02,02,39,11.30
2012,07,02,02,40,11.30
2012,07,02,02,41,11.30
2012,07,02,02,42,11.30
2012,07,02,02,43,11.30
2012,07,02,02,44,11.30
2012,07,02,02,45,11.30
2012,07,02,02,46,11.30
2012,07,02,02,47,11.30
2012,07,02,02,48,11.30
2012,07,02,02,49,11.30
2012,07,02,02,50,11.30
2012,07,02,02,51,11.30
2012,07,02,02,52,11.30
2012,07,02,02,53,11.30
2012,07,02,02,54,11.30
2012,07,02,02,55,11.30
2012,07,02,02,56,11.30
2012,07,02,02,57,11.20
2012,07,02,02,58,11.20
2012,07,02,02,59,11.20
2012,07,02,03,00,11.20
2012,07,02,03,01,11.20
2012,07,02,03,02,11.20
2012,07,02,03,03,11.20
2012,07,02,03,06,11.10
2012,07,02,03,07,11.10
2012,07,02,03,08,11.10
2012,07,02,03,09,11.10
2012,07,02,03,10,11.10
2012,07,02,03,11,11.10
2012,07,02,03,12,11.10
2012,07,02,03,13,11.20
2012,07,02,03,14,11.10
2012,07,02,03,15,11.20
2012,07,02,03,16,11.20
2012,07,02,03,17,11.10
2012,07,02,03,18,11.10
2012,07,02,03,19,11.10
2012,07,02,03,20,11.10
2012,07,02,03,21,11.10
2012,07,02,03,22,11.10
2012,07,02,03,23,11.10
2012,07,02,03,24,11.10
2012,07,02,03,25,11.10
2012,07,02,03,26,11.10
2012,07,02,03,27,11.10
2012,07,02,03,28,11.10
2012,07,02,03,29,11.10
2012,07,02,03,30,11.10
2012,07,02,03,31,11.10
2012,07,02,03,32,11.10
2012,07,02,03,33,11.10
2012,07,02,03,34,11.10
2012,07,02,03,35,11.10
2012,07,02,03,36,11.10
2012,07,02,03,37,11.10
2012,07,02,03,38,11.10
2012,07,02,03,39,11.10
2012,07,02,03,40,11.00
2012,07,02,03,41,11.00
2012,07,02,03,42,11.00
2012,07,02,03,43,10.90
2012,07,02,03,44,10.90
2012,07,02,03,45,10.90
2012,07,02,03,46,10.80
2012,07,02,03,47,10.80
2012,07,02,03,48,10.80
2012,07,02,03,49,10.70
2012,07,02,03,50,10.70
2012,07,02,03,51,10.70
2012,07,02,03,52,10.70
2012,07,02,03,53,10.70
2012,07,02,03,54,10.70
2012,07,02,03,55,10.70
2012,07,02,03,56,10.70
2012,07,02,03,57,10.70
2012,07,02,03,58,10.60
2012,07,02,03,59,10.60
2012,07,02,04,00,10.60
2012,07,02,04,01,10.60
2012,07,02,04,02,10.60
2012,07,02,04,03,10.60
2012,07,02,04,04,10.60
2012,07,02,04,05,10.50
2012,07,02,04,06,10.50
2012,07,02,04,07,10.50
2012,07,02,04,08,10.50
2012,07,02,04,09,10.50
2012,07,02,04,10,10.50
2012,07,02,04,11,10.40
2012,07,02,04,12,10.40
2012,07,02,04,13,10.40
2012,07,02,04,14,10.40
2012,07,02,04,15,10.40
2012,07,02,04,16,10.40
2012,07,02,04,17,10.40
2012,07,02,04,18,10.40
2012,07,02,04,19,10.40
2012,07,02,04,20,10.40
2012,07,02,04,21,10.40
2012,07,02,04,22,10.50
2012,07,02,04,23,10.50
2012,07,02,04,24,10.50
2012,07,02,04,25,10.50
2012,07,02,04,26,10.50
2012,07,02,04,27,10.50
2012,07,02,04,28,10.50
2012,07,02,04,29,10.50
2012,07,02,04,30,10.50
2012,07,02,04,31,10.40
2012,07,02,04,32,10.40
2012,07,02,04,33,10.50
2012,07,02,04,34,10.40
2012,07,02,04,35,10.40
2012,07,02,04,36,10.50
2012,07,02,04,37,10.40
2012,07,02,04,38,10.40
2012,07,02,04,39,10.40
2012,07,02,04,40,10.40
2012,07,02,04,41,10.50
2012,07,02,04,42,10.50
2012,07,02,04,43,10.50
2012,07,02,04,44,10.50
2012,07,02,04,45,10.50
2012,07,02,04,46,10.50
2012,07,02,04,47,10.50
2012,07,02,04,48,10.50
2012,07,02,04,49,10.50
2012,07,02,04,50,10.50
2012,07,02,04,51,10.50
2012,07,02,04,52,10.50
2012,07,02,04,53,10.50
2012,07,02,04,54,10.50
2012,07,02,04,55,10.50
2012,07,02,04,56,10.40
2012,07,02,04,57,10.40
2012,07,02,04,58,10.40
2012,07,02,04,59,10.40
2012,07,02,05,00,10.40
2012,07,02,05,01,10.30
2012,07,02,05,02,10.30
2012,07,02,05,03,10.30
2012,07,02,05,04,10.30
2012,07,02,05,05,10.30
2012,07,02,05,06,10.30
2012,07,02,05,07,10.20
2012,07,02,05,08,10.20
2012,07,02,05,09,10.20
2012,07,02,05,10,10.20
2012,07,02,05,11,10.20
2012,07,02,05,12,10.20
2012,07,02,05,13,10.20
2012,07,02,05,14,10.20
2012,07,02,05,15,10.20
2012,07,02,05,16,10.20
2012,07,02,05,17,10.20
2012,07,02,05,18,10.20
2012,07,02,05,19,10.20
2012,07,02,05,20,10.20
2012,07,02,05,21,10.20
2012,07,02,05,22,10.20
2012,07,02,05,23,10.20
2012,07,02,05,24,10.10
2012,07,02,05,25,10.10
2012,07,02,05,26,10.10
2012,07,02,05,27,10.10
2012,07,02,05,28,10.10
2012,07,02,05,29,10.10
2012,07,02,05,30,10.10
2012,07,02,05,31,10.10
2012,07,02,05,32,10.10
2012,07,02,05,33,10.10
2012,07,02,05,34,10.10
2012,07,02,05,35,10.10
2012,07,02,05,36,10.10
2012,07,02,05,37,10.10
2012,07,02,05,38,10.00
2012,07,02,05,39,10.00
2012,07,02,05,40,10.00
2012,07,02,05,41,10.00
2012,07,02,05,42,10.00
2012,07,02,05,43,10.00
2012,07,02,05,44,10.00
2012,07,02,05,45,10.00
2012,07,02,05,46,9.90
2012,07,02,05,47,9.90
2012,07,02,05,48,9.90
2012,07,02,05,49,9.80
2012,07,02,05,50,9.80
2012,07,02,05,51,9.80
2012,07,02,05,52,9.80
2012,07,02,05,53,9.80
2012,07,02,05,54,9.80
2012,07,02,05,55,9.80
2012,07,02,05,56,9.80
2012,07,02,05,57,9.80
2012,07,02,05,58,9.80
2012,07,02,05,59,9.80
2012,07,02,06,00,9.80
2012,07,02,06,01,9.80
2012,07,02,06,02,9.70
2012,07,02,06,03,9.70
2012,07,02,06,04,9.70
2012,07,02,06,05,9.70
2012,07,02,06,06,9.70
2012,07,02,06,07,9.70
2012,07,02,06,08,9.70
2012,07,02,06,09,9.70
2012,07,02,06,10,9.70
2012,07,02,06,11,9.70
2012,07,02,06,12,9.70
2012,07,02,06,13,9.70
2012,07,02,06,14,9.70
2012,07,02,06,15,9.70
2012,07,02,06,16,9.70
2012,07,02,06,17,9.70
2012,07,02,06,18,9.70
2012,07,02,06,19,9.70
2012,07,02,06,20,9.70
2012,07,02,06,21,9.70
2012,07,02,06,22,9.60
2012,07,02,06,23,9.60
2012,07,02,06,24,9.70
2012,07,02,06,25,9.70
2012,07,02,06,26,9.70
2012,07,02,06,27,9.60
2012,07,02,06,28,9.60
2012,07,02,06,29,9.60
2012,07,02,06,30,9.60
2012,07,02,06,31,9.60
2012,07,02,06,32,9.60
2012,07,02,06,33,9.60
2012,07,02,06,34,9.60
2012,07,02,06,35,9.60
2012,07,02,06,36,9.60
2012,07,02,06,37,9.60
2012,07,02,06,38,9.60
2012,07,02,06,39,9.60
2012,07,02,06,40,9.60
2012,07,02,06,41,9.60
2012,07,02,06,42,9.60
2012,07,02,06,43,9.60
2012,07,02,06,44,9.60
2012,07,02,06,45,9.60
2012,07,02,06,46,9.60
2012,07,02,06,47,9.60
2012,07,02,06,48,9.60
2012,07,02,06,49,9.60
2012,07,02,06,50,9.60
2012,07,02,06,51,9.60
2012,07,02,06,52,9.60
2012,07,02,06,53,9.60
2012,07,02,06,54,9.60
2012,07,02,06,55,9.60
2012,07,02,06,56,9.60
2012,07,02,06,57,9.60
2012,07,02,06,58,9.60
2012,07,02,06,59,9.60
2012,07,02,07,00,9.70
2012,07,02,07,01,9.70
2012,07,02,07,02,9.70
2012,07,02,07,03,9.70
2012,07,02,07,04,9.70
2012,07,02,07,05,9.70
2012,07,02,07,06,9.70
2012,07,02,07,07,9.70
2012,07,02,07,08,9.70
2012,07,02,07,09,9.70
2012,07,02,07,10,9.70
2012,07,02,07,11,9.70
2012,07,02,07,12,9.70
2012,07,02,07,13,9.70
2012,07,02,07,14,9.70
2012,07,02,07,15,9.70
2012,07,02,07,16,9.70
2012,07,02,07,17,9.80
2012,07,02,07,18,9.80
2012,07,02,07,19,9.80
2012,07,02,07,20,9.80
2012,07,02,07,21,9.80
2012,07,02,07,22,9.80
2012,07,02,07,23,9.80
2012,07,02,07,24,9.90
2012,07,02,07,25,9.90
2012,07,02,07,26,9.90
2012,07,02,07,27,9.90
2012,07,02,07,28,9.90
2012,07,02,07,29,9.90
2012,07,02,07,30,9.90
2012,07,02,07,31,9.90
2012,07,02,07,32,9.90
2012,07,02,07,33,9.90
2012,07,02,07,34,9.90
2012,07,02,07,35,9.90
2012,07,02,07,36,9.90
2012,07,02,07,37,9.90
2012,07,02,07,38,9.90
2012,07,02,07,39,9.90
2012,07,02,07,40,9.90
2012,07,02,07,41,9.90
2012,07,02,07,42,9.90
2012,07,02,07,43,9.90
2012,07,02,07,44,9.90
2012,07,02,07,45,9.90
2012,07,02,07,46,9.90
2012,07,02,07,47,9.90
2012,07,02,07,48,9.90
2012,07,02,07,49,9.90
2012,07,02,07,50,9.90
2012,07,02,07,51,10.00
2012,07,02,07,52,10.00
2012,07,02,07,53,10.00
2012,07,02,07,54,10.10
2012,07,02,07,55,10.10
2012,07,02,07,56,10.10
2012,07,02,07,57,10.10
2012,07,02,07,58,10.10
2012,07,02,07,59,10.10
2012,07,02,08,00,10.10
2012,07,02,08,01,10.10
2012,07,02,08,02,10.10
2012,07,02,08,03,10.20
2012,07,02,08,04,10.20
2012,07,02,08,05,10.20
2012,07,02,08,06,10.20
2012,07,02,08,07,10.30
2012,07,02,08,08,10.30
2012,07,02,08,09,10.30
2012,07,02,08,10,10.30
2012,07,02,08,11,10.30
2012,07,02,08,12,10.30
2012,07,02,08,13,10.30
2012,07,02,08,14,10.30
2012,07,02,08,15,10.30
2012,07,02,08,16,10.40
2012,07,02,08,17,10.40
2012,07,02,08,18,10.40
2012,07,02,08,19,10.40
2012,07,02,08,20,10.40
2012,07,02,08,21,10.40
2012,07,02,08,22,10.40
2012,07,02,08,23,10.40
2012,07,02,08,24,10.50
2012,07,02,08,25,10.50
2012,07,02,08,26,10.60
2012,07,02,08,27,10.60
2012,07,02,08,28,10.60
2012,07,02,08,29,10.60
2012,07,02,08,30,10.70
2012,07,02,08,31,10.70
2012,07,02,08,32,10.70
2012,07,02,08,33,10.70
2012,07,02,08,34,10.70
2012,07,02,08,35,10.70
2012,07,02,08,36,10.80
2012,07,02,08,37,10.80
2012,07,02,08,38,10.80
2012,07,02,08,39,10.70
2012,07,02,08,40,10.70
2012,07,02,08,41,10.80
2012,07,02,08,42,10.80
2012,07,02,08,43,10.80
2012,07,02,08,44,10.80
2012,07,02,08,45,10.80
2012,07,02,08,46,10.80
2012,07,02,08,47,10.80
2012,07,02,08,48,10.80
2012,07,02,08,49,10.80
2012,07,02,08,50,10.80
2012,07,02,08,51,10.80
2012,07,02,08,52,10.80
2012,07,02,08,53,10.80
2012,07,02,08,54,10.90
2012,07,02,08,55,10.90
2012,07,02,08,56,10.90
2012,07,02,08,57,10.90
2012,07,02,08,58,10.90
2012,07,02,08,59,10.90
2012,07,02,09,00,10.90
2012,07,02,09,01,10.90
2012,07,02,09,02,10.90
2012,07,02,09,03,10.90
2012,07,02,09,04,10.90
2012,07,02,09,05,10.90
2012,07,02,09,06,10.90
2012,07,02,09,07,10.90
2012,07,02,09,08,11.00
2012,07,02,09,09,11.00
2012,07,02,09,10,11.00
2012,07,02,09,11,11.00
2012,07,02,09,12,11.10
2012,07,02,09,13,11.10
2012,07,02,09,14,11.10
2012,07,02,09,15,11.20
2012,07,02,09,16,11.20
2012,07,02,09,17,11.20
2012,07,02,09,18,11.20
2012,07,02,09,19,11.20
2012,07,02,09,20,11.30
2012,07,02,09,21,11.30
2012,07,02,09,22,11.30
2012,07,02,09,23,11.30
2012,07,02,09,24,11.30
2012,07,02,09,25,11.30
2012,07,02,09,26,11.30
2012,07,02,09,27,11.40
2012,07,02,09,28,11.40
2012,07,02,09,29,11.40
2012,07,02,09,30,11.40
2012,07,02,09,31,11.40
2012,07,02,09,32,11.40
2012,07,02,09,33,11.50
2012,07,02,09,34,11.50
2012,07,02,09,35,11.50
2012,07,02,09,36,11.50
2012,07,02,09,37,11.50
2012,07,02,09,38,11.50
2012,07,02,09,39,11.50
2012,07,02,09,40,11.50
2012,07,02,09,41,11.50
2012,07,02,09,42,11.50
2012,07,02,09,43,11.50
2012,07,02,09,44,11.50
2012,07,02,09,45,11.50
2012,07,02,09,46,11.50
2012,07,02,09,47,11.50
2012,07,02,09,48,11.40
2012,07,02,09,49,11.40
2012,07,02,09,50,11.40
2012,07,02,09,51,11.40
2012,07,02,09,52,11.40
2012,07,02,09,53,11.40
2012,07,02,09,54,11.50
2012,07,02,09,55,11.50
2012,07,02,09,56,11.50
2012,07,02,09,57,11.50
2012,07,02,09,58,11.50
2012,07,02,09,59,11.50
2012,07,02,10,00,11.60
2012,07,02,10,01,11.60
2012,07,02,10,02,11.60
2012,07,02,10,03,11.60
2012,07,02,10,04,11.60
2012,07,02,10,05,11.70
2012,07,02,10,06,11.70
2012,07,02,10,07,11.70
2012,07,02,10,08,11.70
2012,07,02,10,09,11.70
2012,07,02,10,10,11.70
2012,07,02,10,11,11.70
2012,07,02,10,12,11.80
2012,07,02,10,13,11.80
2012,07,02,10,14,11.80
2012,07,02,10,15,11.80
2012,07,02,10,16,11.80
2012,07,02,10,17,11.80
2012,07,02,10,18,11.80
2012,07,02,10,19,11.80
2012,07,02,10,20,11.90
2012,07,02,10,21,11.90
2012,07,02,10,22,11.90
2012,07,02,10,23,11.90
2012,07,02,10,24,11.90
2012,07,02,10,25,11.90
2012,07,02,10,26,12.00
2012,07,02,10,27,12.00
2012,07,02,10,28,12.00
2012,07,02,10,29,12.00
2012,07,02,10,30,12.00
2012,07,02,10,31,12.10
2012,07,02,10,32,12.10
2012,07,02,10,33,12.10
2012,07,02,10,34,12.10
2012,07,02,10,35,12.10
2012,07,02,10,36,12.10
2012,07,02,10,37,12.10
2012,07,02,10,38,12.10
2012,07,02,10,39,12.10
2012,07,02,10,40,12.10
2012,07,02,10,41,12.10
2012,07,02,10,42,12.10
2012,07,02,10,43,12.20
2012,07,02,10,44,12.20
2012,07,02,10,45,12.20
2012,07,02,10,46,12.20
2012,07,02,10,47,12.20
2012,07,02,10,48,12.20
2012,07,02,10,49,12.30
2012,07,02,10,50,12.30
2012,07,02,10,51,12.20
2012,07,02,10,52,12.20
2012,07,02,10,53,12.20
2012,07,02,10,54,12.20
2012,07,02,10,55,12.20
2012,07,02,10,56,12.20
2012,07,02,10,57,12.20
2012,07,02,10,58,12.10
2012,07,02,10,59,12.10
2012,07,02,11,00,12.10
2012,07,02,11,01,12.10
2012,07,02,11,02,12.20
2012,07,02,11,03,12.20
2012,07,02,11,04,12.20
2012,07,02,11,05,12.20
2012,07,02,11,06,12.20
2012,07,02,11,07,12.20
2012,07,02,11,08,12.20
2012,07,02,11,09,12.30
2012,07,02,11,10,12.30
2012,07,02,11,11,12.30
2012,07,02,11,12,12.30
2012,07,02,11,13,12.30
2012,07,02,11,14,12.30
2012,07,02,11,15,12.30
2012,07,02,11,16,12.30
2012,07,02,11,17,12.30
2012,07,02,11,18,12.30
2012,07,02,11,19,12.30
2012,07,02,11,20,12.30
2012,07,02,11,21,12.30
2012,07,02,11,22,12.30
2012,07,02,11,23,12.30
2012,07,02,11,24,12.30
2012,07,02,11,25,12.30
2012,07,02,11,26,12.30
2012,07,02,11,27,12.30
2012,07,02,11,28,12.30
2012,07,02,11,29,12.30
2012,07,02,11,30,12.30
2012,07,02,11,31,12.30
2012,07,02,11,32,12.30
2012,07,02,11,33,12.30
2012,07,02,11,34,12.30
2012,07,02,11,35,12.30
2012,07,02,11,36,12.30
2012,07,02,11,37,12.30
2012,07,02,11,38,12.40
2012,07,02,11,39,12.40
2012,07,02,11,40,12.40
2012,07,02,11,41,12.40
2012,07,02,11,42,12.50
2012,07,02,11,43,12.50
2012,07,02,11,44,12.50
2012,07,02,11,45,12.50
2012,07,02,11,46,12.50
2012,07,02,11,47,12.50
2012,07,02,11,48,12.50
2012,07,02,11,49,12.50
2012,07,02,11,50,12.40
2012,07,02,11,51,12.40
2012,07,02,11,52,12.40
2012,07,02,11,53,12.40
2012,07,02,11,54,12.40
2012,07,02,11,55,12.50
2012,07,02,11,56,12.50
2012,07,02,11,57,12.50
2012,07,02,11,58,12.60
2012,07,02,11,59,12.60
2012,07,02,12,00,12.60
2012,07,02,12,01,12.70
2012,07,02,12,02,12.70
2012,07,02,12,03,12.70
2012,07,02,12,04,12.70
2012,07,02,12,05,12.80
2012,07,02,12,06,12.80
2012,07,02,12,07,12.80
2012,07,02,12,08,12.80
2012,07,02,12,09,12.80
2012,07,02,12,10,12.80
2012,07,02,12,11,12.80
2012,07,02,12,12,12.80
2012,07,02,12,13,12.80
2012,07,02,12,14,12.80
2012,07,02,12,15,12.80
2012,07,02,12,16,12.80
2012,07,02,12,17,12.80
2012,07,02,12,18,12.80
2012,07,02,12,19,12.90
2012,07,02,12,20,12.90
2012,07,02,12,21,13.00
2012,07,02,12,22,13.10
2012,07,02,12,23,13.10
2012,07,02,12,24,13.20
2012,07,02,12,25,13.20
2012,07,02,12,26,13.20
2012,07,02,12,27,13.20
2012,07,02,12,28,13.30
2012,07,02,12,29,13.30
2012,07,02,12,30,13.30
2012,07,02,12,31,13.30
2012,07,02,12,32,13.30
2012,07,02,12,33,13.20
2012,07,02,12,34,13.20
2012,07,02,12,35,13.20
2012,07,02,12,36,13.30
2012,07,02,12,37,13.30
2012,07,02,12,38,13.30
2012,07,02,12,39,13.30
2012,07,02,12,40,13.30
2012,07,02,12,41,13.40
2012,07,02,12,42,13.50
2012,07,02,12,43,13.50
2012,07,02,12,44,13.50
2012,07,02,12,45,13.50
2012,07,02,12,46,13.60
2012,07,02,12,47,13.60
2012,07,02,12,48,13.60
2012,07,02,12,49,13.70
2012,07,02,12,50,13.70
2012,07,02,12,51,13.70
2012,07,02,12,52,13.80
2012,07,02,12,53,13.80
2012,07,02,12,54,13.70
2012,07,02,12,55,13.70
2012,07,02,12,56,13.70
2012,07,02,12,57,13.80
2012,07,02,12,58,13.80
2012,07,02,12,59,13.80
2012,07,02,13,00,13.80
2012,07,02,13,01,13.80
2012,07,02,13,02,13.90
2012,07,02,13,03,13.90
2012,07,02,13,04,14.00
2012,07,02,13,05,14.00
2012,07,02,13,06,14.00
2012,07,02,13,07,14.10
2012,07,02,13,08,14.10
2012,07,02,13,09,14.20
2012,07,02,13,10,14.20
2012,07,02,13,11,14.30
2012,07,02,13,12,14.30
2012,07,02,13,13,14.50
2012,07,02,13,14,14.60
2012,07,02,13,15,14.60
2012,07,02,13,16,14.70
2012,07,02,13,17,14.60
2012,07,02,13,18,14.50
2012,07,02,13,19,14.30
2012,07,02,13,20,14.30
2012,07,02,13,21,14.30
2012,07,02,13,22,14.30
2012,07,02,13,23,14.40
2012,07,02,13,24,14.40
2012,07,02,13,25,14.50
2012,07,02,13,26,14.50
2012,07,02,13,27,14.60
2012,07,02,13,28,14.70
2012,07,02,13,29,14.80
2012,07,02,13,30,14.80
2012,07,02,13,31,14.90
2012,07,02,13,32,15.00
2012,07,02,13,33,15.00
2012,07,02,13,34,15.00
2012,07,02,13,35,15.00
2012,07,02,13,36,15.00
2012,07,02,13,37,15.10
2012,07,02,13,38,15.00
2012,07,02,13,39,14.90
2012,07,02,13,40,14.80
2012,07,02,13,41,14.80
2012,07,02,13,42,14.80
2012,07,02,13,43,14.90
2012,07,02,13,44,14.90
2012,07,02,13,45,14.90
2012,07,02,13,46,15.00
2012,07,02,13,47,15.00
2012,07,02,13,48,15.10
2012,07,02,13,49,15.10
2012,07,02,13,50,15.10
2012,07,02,13,51,15.10
2012,07,02,13,52,15.10
2012,07,02,13,53,15.10
2012,07,02,13,54,15.20
2012,07,02,13,55,15.20
2012,07,02,13,56,15.30
2012,07,02,13,57,15.40
2012,07,02,13,58,15.40
2012,07,02,13,59,15.40
2012,07,02,14,00,15.40
2012,07,02,14,01,15.30
2012,07,02,14,02,15.30
2012,07,02,14,03,15.40
2012,07,02,14,04,15.40
2012,07,02,14,05,15.50
2012,07,02,14,06,15.50
2012,07,02,14,07,15.60
2012,07,02,14,08,15.70
2012,07,02,14,09,15.70
2012,07,02,14,10,15.60
2012,07,02,14,11,15.60
2012,07,02,14,12,15.60
2012,07,02,14,13,15.70
2012,07,02,14,14,15.80
2012,07,02,14,15,15.80
2012,07,02,14,16,15.70
2012,07,02,14,17,15.70
2012,07,02,14,18,15.70
2012,07,02,14,19,15.70
2012,07,02,14,20,15.70
2012,07,02,14,21,15.80
2012,07,02,14,22,16.00
2012,07,02,14,23,16.00
2012,07,02,14,24,16.10
2012,07,02,14,25,16.10
2012,07,02,14,26,16.20
2012,07,02,14,27,16.20
2012,07,02,14,28,16.10
2012,07,02,14,29,16.10
2012,07,02,14,30,15.90
2012,07,02,14,31,15.80
2012,07,02,14,32,15.70
2012,07,02,14,33,15.60
2012,07,02,14,34,15.60
2012,07,02,14,35,15.60
2012,07,02,14,36,15.60
2012,07,02,14,37,15.60
2012,07,02,14,38,15.50
2012,07,02,14,39,15.50
2012,07,02,14,40,15.50
2012,07,02,14,41,15.60
2012,07,02,14,42,15.60
2012,07,02,14,43,15.70
2012,07,02,14,44,15.70
2012,07,02,14,45,15.70
2012,07,02,14,46,15.70
2012,07,02,14,47,15.70
2012,07,02,14,48,15.70
2012,07,02,14,49,15.60
2012,07,02,14,50,15.60
2012,07,02,14,51,15.50
2012,07,02,14,52,15.40
2012,07,02,14,53,15.50
2012,07,02,14,54,15.50
2012,07,02,14,55,15.60
2012,07,02,14,56,15.60
2012,07,02,14,57,15.60
2012,07,02,14,58,15.70
2012,07,02,14,59,15.70
2012,07,02,15,00,15.80
2012,07,02,15,01,15.90
2012,07,02,15,02,15.90
2012,07,02,15,03,16.00
2012,07,02,15,04,15.90
2012,07,02,15,05,15.90
2012,07,02,15,06,15.80
2012,07,02,15,07,15.80
2012,07,02,15,08,15.70
2012,07,02,15,09,15.70
2012,07,02,15,10,15.70
2012,07,02,15,11,15.70
2012,07,02,15,12,15.70
2012,07,02,15,13,15.70
2012,07,02,15,14,15.70
2012,07,02,15,15,15.70
2012,07,02,15,16,15.60
2012,07,02,15,17,15.60
2012,07,02,15,18,15.70
2012,07,02,15,19,15.70
2012,07,02,15,20,15.70
2012,07,02,15,21,15.60
2012,07,02,15,22,15.60
2012,07,02,15,23,15.60
2012,07,02,15,24,15.60
2012,07,02,15,25,15.60
2012,07,02,15,26,15.70
2012,07,02,15,27,15.70
2012,07,02,15,28,15.70
2012,07,02,15,29,15.70
2012,07,02,15,30,15.70
2012,07,02,15,31,15.70
2012,07,02,15,32,15.70
2012,07,02,15,33,15.70
2012,07,02,15,34,15.60
2012,07,02,15,35,15.70
2012,07,02,15,36,15.70
2012,07,02,15,37,15.70
2012,07,02,15,38,15.70
2012,07,02,15,39,15.60
2012,07,02,15,40,15.60
2012,07,02,15,41,15.50
2012,07,02,15,42,15.40
2012,07,02,15,43,15.30
2012,07,02,15,44,15.30
2012,07,02,15,45,15.30
2012,07,02,15,46,15.30
2012,07,02,15,47,15.30
2012,07,02,15,48,15.30
2012,07,02,15,49,15.30
2012,07,02,15,50,15.30
2012,07,02,15,51,15.30
2012,07,02,15,52,15.30
2012,07,02,15,53,15.30
2012,07,02,15,54,15.40
2012,07,02,15,55,15.40
2012,07,02,15,56,15.30
2012,07,02,15,57,15.30
2012,07,02,15,58,15.30
2012,07,02,15,59,15.40
2012,07,02,16,00,15.40
2012,07,02,16,01,15.50
2012,07,02,16,02,15.50
2012,07,02,16,03,15.50
2012,07,02,16,04,15.40
2012,07,02,16,05,15.40
2012,07,02,16,06,15.40
2012,07,02,16,07,15.40
2012,07,02,16,08,15.30
2012,07,02,16,09,15.30
2012,07,02,16,10,15.30
2012,07,02,16,11,15.20
2012,07,02,16,12,15.20
2012,07,02,16,13,15.20
2012,07,02,16,14,15.20
2012,07,02,16,15,15.20
2012,07,02,16,16,15.20
2012,07,02,16,17,15.20
2012,07,02,16,18,15.30
2012,07,02,16,19,15.30
2012,07,02,16,20,15.30
2012,07,02,16,21,15.20
2012,07,02,16,22,15.20
2012,07,02,16,23,15.10
2012,07,02,16,24,15.10
2012,07,02,16,25,15.10
2012,07,02,16,26,15.10
2012,07,02,16,27,15.10
2012,07,02,16,28,15.10
2012,07,02,16,29,15.10
2012,07,02,16,30,15.10
2012,07,02,16,31,15.10
2012,07,02,16,32,15.10
2012,07,02,16,33,15.10
2012,07,02,16,34,15.10
2012,07,02,16,35,15.10
2012,07,02,16,36,15.10
2012,07,02,16,37,15.00
2012,07,02,16,38,15.00
2012,07,02,16,39,15.00
2012,07,02,16,40,15.10
2012,07,02,16,41,15.10
2012,07,02,16,42,15.10
2012,07,02,16,43,15.10
2012,07,02,16,44,15.10
2012,07,02,16,45,15.00
2012,07,02,16,46,15.00
2012,07,02,16,47,14.90
2012,07,02,16,48,14.80
2012,07,02,16,49,14.70
2012,07,02,16,50,14.70
2012,07,02,16,51,14.70
2012,07,02,16,52,14.60
2012,07,02,16,53,14.50
2012,07,02,16,54,14.50
2012,07,02,16,55,14.40
2012,07,02,16,56,14.50
2012,07,02,16,57,14.50
2012,07,02,16,58,14.60
2012,07,02,16,59,14.60
2012,07,02,17,00,14.60
2012,07,02,17,01,14.50
2012,07,02,17,02,14.50
2012,07,02,17,03,14.50
2012,07,02,17,04,14.50
2012,07,02,17,05,14.50
2012,07,02,17,06,14.50
2012,07,02,17,07,14.50
2012,07,02,17,08,14.50
2012,07,02,17,09,14.50
2012,07,02,17,10,14.50
2012,07,02,17,11,14.50
2012,07,02,17,12,14.60
2012,07,02,17,13,14.60
2012,07,02,17,14,14.60
2012,07,02,17,15,14.60
2012,07,02,17,16,14.60
2012,07,02,17,17,14.70
2012,07,02,17,18,14.70
2012,07,02,17,19,14.70
2012,07,02,17,20,14.70
2012,07,02,17,21,14.70
2012,07,02,17,22,14.60
2012,07,02,17,23,14.60
2012,07,02,17,24,14.60
2012,07,02,17,25,14.60
2012,07,02,17,26,14.70